Regional Weather Roundup
Issued by NWS San Angelo, TX

Home | Current Version | Previous Version | Text Only | Print | Product List | Glossary On
Versions: 1 2 3 4 5 6 7 8 9 10 11 12 13 14 15 16 17 18 19 20 21 22 23 24 25 26 27 28 29 30 31 32 33 34 35 36 37 38 39 40 41 42 43 44 45 46 47 48 49 50
000
ASUS44 KSJT 291110
RWRSJT
WEST CENTRAL TEXAS REGIONAL WEATHER ROUNDUP
NATIONAL WEATHER SERVICE SAN ANGELO TX
600 AM CDT FRI MAY 29 2015

NOTE: "FAIR" INDICATES FEW OR NO CLOUDS BELOW 12,000 FEET WITH NO
SIGNIFICANT WEATHER AND/OR OBSTRUCTIONS TO VISIBILITY.

TXZ049-054-064>066-071>073-076>078-098-099-113-114-127-128-139-140-
154-155-168>170-291200
...LOCATIONS ACROSS WEST CENTRAL TEXAS...

CITY           SKY/WX    TMP DP  RH WIND       PRES   REMARKS
SAN ANGELO     CLOUDY    61  59  93 E5        29.93F
ABILENE        CLOUDY    63  61  93 W5        29.98R
DYESS AFB      CLOUDY    62  58  87 N2        29.97R
JUNCTION       CLOUDY    61  61 100 CALM      29.93R
SWEETWATER     CLEAR     59  59 100 SE5       30.00R
BROWNWOOD      CLOUDY    63  63 100 CALM      29.96R
COLEMAN        CLOUDY    62  62 100 NW5       29.97R
SONORA         PTCLDY    61  59  94 CALM      29.98R
OZONA          NOT AVBL
BRADY          NOT AVBL
$$

TEXAS PANHANDLE/OKLAHOMA PANHANDLE

CITY           SKY/WX    TMP DP  RH WIND       PRES   REMARKS
AMARILLO       CLOUDY    58  52  80 NW12      30.02F
BORGER         MOCLDY    57  52  83 SW3       29.99S
CANADIAN       MOCLDY    55  54  96 CALM      29.98R
DALHART        MOCLDY    53  50  89 N9        30.07R
DUMAS          PTSUNNY   53  52  97 NW8       30.05R
GUYMON         NOT AVBL
HEREFORD       PTSUNNY   55  52  90 MISG      30.05F
PAMPA          PTSUNNY   52  50  95 SW6       30.00S
PERRYTON       MOCLDY    54  51  91 CALM      29.99R
$$

SOUTHERN PANHANDLE/SOUTH PLAINS/ROLLING PLAINS

CITY           SKY/WX    TMP DP  RH WIND       PRES   REMARKS
LUBBOCK        CLOUDY    56  55  97 S5        29.99F
SNYDER         CLEAR     59  58  96 CALM      29.99R
CHILDRESS      CLOUDY    59  58  96 N7        29.96R
SEMINOLE       MOSUNNY   55  53  92 NE3       30.00S
$$

PERMIAN BASIN

CITY           SKY/WX    TMP DP  RH WIND       PRES   REMARKS
MIDLAND        CLEAR     59  55  87 N5        29.95R
ODESSA         CLEAR     60  53  77 SE3       29.96R
WINK           CLEAR     53  51  93 N7        29.92S
$$

FAR WEST/SOUTHWEST MOUNTAINS/TRANS PECOS

CITY           SKY/WX    TMP DP  RH WIND       PRES   REMARKS
ALPINE         MOSUNNY   61  55  80 SW10      30.08F
DRYDEN           N/A     65  62  90 VRB5      29.95S
EL PASO        CLEAR     70  19  14 SW8       29.97S
FORT STOCKTON  CLEAR     60  57  89 S8        29.95R
GUADALUPE PASS CLEAR     65  32  29 SW12      30.06S
MARFA          CLEAR     48  45  87 N7        30.09S
PECOS          SUNNY     54  52  94 CALM      29.93S
$$

DALLAS/FORT WORTH METROPLEX

CITY           SKY/WX    TMP DP  RH WIND       PRES   REMARKS
DFW AIRPORT    CLOUDY    66  66 100 SE3       29.86F
FTW MEACHAM    LGT RAIN  68  67  96 W3        29.88R
DAL-EXECUTIVE  LGT RAIN  68  67  96 SE8       29.86F
GRAND PRAIRIE  CLOUDY    68  68 100 CALM      29.88S
ADDISON        LGT RAIN  70  68  94 E14       29.87F
MESQUITE       CLOUDY    70  69  95 E8        29.89F
LANCASTER      LGT RAIN  68  66  93 CALM      29.88F
$$

NORTH CENTRAL TEXAS

CITY           SKY/WX    TMP DP  RH WIND       PRES   REMARKS
SHRMAN/DENISON RAIN      67  67 100 NE10      29.93F
GAINESVILLE    LGT RAIN  65  65  97 NE10      29.92F
BRIDGEPORT     CLOUDY    65  65 100 CALM      29.92S
DENTON         CLOUDY    67  66  97 E8        29.87F
WAXAHACHIE     DRIZZLE   67  67 100 SE5       29.88F
GRANBURY       DRIZZLE   66  65  94 W5        29.90F
$$

WESTERN NORTH TEXAS

CITY           SKY/WX    TMP DP  RH WIND       PRES   REMARKS
WICHITA FALLS  CLOUDY    63  62  97 S3        29.92F
VERNON         CLOUDY    64  58  82 S5        29.93S
BRECKENRIDGE   CLOUDY    65  64  97 CALM      29.93S
COMANCHE       CLOUDY    62  62 100 CALM      29.94R
$$

CENTRAL AND SOUTH CENTRAL TEXAS

CITY           SKY/WX    TMP DP  RH WIND       PRES   REMARKS
AUSTIN/BERGSTM LGT RAIN  64  64 100 S10       29.86F
WACO           CLOUDY    65  64  97 S7        29.85F
HILLSBORO      DRIZZLE   67  65  93 CALM      29.85F
TEMPLE         CLOUDY    64  61  88 S13       29.89F
KILLEEN-GRAY   CLOUDY    64  63  97 VRB1      29.90S
FORT HOOD        N/A     64  63  98 SW7       29.92R
GEORGETOWN     CLOUDY    64  63  94 E7        29.84F
LAGO VISTA     LGT RAIN  64  63  96 E8G20     29.81F
SAN MARCOS     NOT AVBL
NEW BRAUNFELS  LGT RAIN  66  65  96 SE15      29.86F
RANDOLPH AFB   CLOUDY    66  61  82 SE10      29.80F
SAN ANTONIO    CLOUDY    66  62  87 W5        29.87F
STINSON        CLOUDY    69  61  75 E13       29.82F
PLEASANTON     NOT AVBL
LA GRANGE      CLOUDY    67  66  96 SE5       29.92F
GIDDINGS       CLOUDY    65  64  94 S3        29.96F
$$

EAST TEXAS

CITY           SKY/WX    TMP DP  RH WIND       PRES   REMARKS
PARIS          CLOUDY    70  64  83 E7        29.95R
CLARKSVILLE    NOT AVBL
TYLER          CLOUDY    74  71  91 SE7       29.94S
LONGVIEW       CLOUDY    72  69  90 SE7       29.97R
PALESTINE      RAIN      75  73  92 SE8       29.95S
NACOGDOCHES    CLOUDY    73  72  94 SE7       29.97S
$$

TEXAS HILL COUNTRY AND EDWARDS PLATEAU

CITY           SKY/WX    TMP DP  RH WIND       PRES   REMARKS
LLANO          CLOUDY    63  63 100 W7        29.94R
HORSESHOE BAY  FAIR      65  63  93 CALM      29.86R
KERRVILLE      CLOUDY    61  59  94 N5        29.93R
FREDERICKSBRG  CLOUDY    63  59  88 CALM      29.91F
ROCKSPRINGS    PTSUNNY  N/A N/A N/A W8        29.99R
HONDO          CLOUDY    64  61  90 S3        29.91R
UVALDE         CLOUDY    63  61  94 CALM      29.96R
DEL RIO        PTCLDY    64  62  93 SE6       29.96F
$$

SOUTHEAST TEXAS

CITY           SKY/WX    TMP DP  RH WIND       PRES   REMARKS
COLLEGE STN    CLOUDY    67  65  93 SE3       29.95S
CALDWELL       CLOUDY    64  64 100 S7        29.96F
CROCKETT       NOT AVBL
BRENHAM        CLOUDY    68  67  96 SW3       29.97R
HUNTSVILLE     CLOUDY    73  70  90 VRB7      29.98R
CONROE         CLOUDY    75  73  93 S8        29.97R
HOUSTON BUSH   CLOUDY    77  75  93 S6        29.96S
HOUSTON HOBBY  CLOUDY    77  75  93 S7        29.96S THUNDER
PERLAND        CLOUDY    78  72  81 S6        29.98R
WHARTON        CLOUDY    67  65  94 CALM      30.00F
$$

THE UPPER TEXAS COAST

CITY           SKY/WX    TMP DP  RH WIND       PRES   REMARKS
ORANGE         CLOUDY    77  74  91 S5        30.00R
PORT ARTHUR    PTCLDY    77  74  90 S7        29.98R
GALVESTON      CLOUDY    80  77  90 S10       29.99R
ANGLETON       CLOUDY    74  74 100 SW5       29.97S
BAY CITY       HVY RAIN  71  69  92 NW22G30   30.02R
$$

TEXAS COASTAL BEND, RIO GRANDE PLAINS DEEP SOUTH TEXAS

CITY           SKY/WX    TMP DP  RH WIND       PRES   REMARKS
VICTORIA       CLOUDY    67  65  93 N10       29.99F
BEEVILLE       RAIN      66  66 100 NE7       30.00F
ROCKPORT       LGT RAIN  69  64  84 N14       30.02S
PORT ARANSAS   HVY RAIN  67  66  96 N30G38    30.02R
PORT LAVACA    LGT RAIN  66  65  97 N3        30.02R
CORPUS CHRISTI TSTM      67  65  93 N15       30.02F
KINGSVILLE NAS HVY RAIN  67  66  97 N15G23    30.02R FOG
COTULLA        CLOUDY    66  63  90 S10       29.92F
LAREDO         MOCLDY    65  63  93 E16       30.00F
BROWNSVILLE    CLOUDY    80  77  90 S5        29.93R
PORT ISABEL    CLOUDY    80  76  87 S5        29.93R
HEBBRONVILLE     N/A     64  63  94 NE10G18   30.04R
MCALLEN        CLOUDY    80  76  87 SE8       29.93R
WESLACO        MOCLDY    78  74  88 E3        29.93R
FALFURRIAS     CLOUDY    66  63  91 N16G37    30.01R VSB 3/4
EDINBURG       MOSUNNY   79  75  89 E7        29.93F FOG
$$


USA.gov is the U.S. government's official web portal to all federal, state and local government web resources and services.